Location: Krakow
(50.0830°N, 19.9170°E)
Time: 08:44:32
(UTC+02:00)

Vanguard 3 - Pass Details

Date: 09 February 2023
Orbit: 508 x 3249 km, 33.4° (Epoch: 31 March)

Event Time Altitude Azimuth Distance (km) Brightness Sun altitude
Rises 17:11:31 0° 221° (SW) 3,520 11.6 -4.4°
Reaches altitude 10° 17:14:15 10° 206° (SSW) 2,887 10.7 -4.9°
Maximum altitude 17:19:42 23° 156° (SSE) 2,659 9.7 -5.7°
Drops below altitude 10° 17:27:41 10° 111° (ESE) 4,415 10.4 -6.9°
Enters shadow 17:31:45 - 102° (ESE) 5,556 10.8 -7.6°
Sets 17:33:10 0° 100° (E) 5,953 - -7.8°
